This is the latest recevied weather packets stored in our database for station/object N4MGC. If no packets are shown the sender has not sent any weather packets the latest 10 day(s).
| Time | Temp. | Humidity | Pressure | Rain* | Wind** | Luminosity | Snow |
|---|---|---|---|---|---|---|---|
| 1778096766 | 25.56° C | 83% | 1011.3 hPa | 0 mm | - | 290 W/m² | - |
| 1778096462 | 26.11° C | 84% | 1011.6 hPa | 0 mm | - | 223 W/m² | - |
| 1778096160 | 26.11° C | 84% | 1011.6 hPa | 0 mm | - | 288 W/m² | - |
| 1778095857 | 25.56° C | 86% | 1011.5 hPa | 0 mm | - | 248 W/m² | - |
| 1778095553 | 25° C | 86% | 1012 hPa | 0 mm | - | 449 W/m² | - |
| 1778095249 | 25° C | 87% | 1012.3 hPa | 0 mm | - | 184 W/m² | - |
| 1778094946 | 25° C | 87% | 1012.5 hPa | 0 mm | - | 146 W/m² | - |
| 1778094641 | 25° C | 86% | 1012.5 hPa | 0 mm | - | 89 W/m² | - |
| 1778094339 | 25° C | 86% | 1012.5 hPa | 0 mm | - | 83 W/m² | - |
| 1778094036 | 25° C | 85% | 1012.4 hPa | 0 mm | - | 109 W/m² | - |
| 1778093733 | 25.56° C | 85% | 1012.5 hPa | 0 mm | - | 110 W/m² | - |
| 1778093430 | 26.11° C | 83% | 1012.5 hPa | 0 mm | - | 167 W/m² | - |
| 1778093127 | 26.11° C | 83% | 1012.4 hPa | 0 mm | - | 333 W/m² | - |
| 1778092825 | 25.56° C | 83% | 1012.5 hPa | 0 mm | - | 354 W/m² | - |
| 1778092520 | 25° C | 83% | 1012.2 hPa | 0 mm | - | 291 W/m² | - |
| 1778092217 | 25.56° C | 84% | 1012.6 hPa | 0 mm | - | 200 W/m² | - |
| 1778091915 | 25.56° C | 84% | 1012.9 hPa | 0 mm | - | 233 W/m² | - |
| 1778091611 | 25.56° C | 83% | 1012.5 hPa | 0 mm | - | 258 W/m² | - |
| 1778091309 | 25° C | 86% | 1012.7 hPa | 0 mm | - | 307 W/m² | - |
| 1778091006 | 25° C | 85% | 1012.8 hPa | 0 mm | - | 176 W/m² | - |
| 1778090703 | 24.44° C | 85% | 1012.5 hPa | 0 mm | - | 252 W/m² | - |
| 1778090399 | 25° C | 85% | 1012.6 hPa | 0 mm | - | 125 W/m² | - |
| 1778090095 | 25° C | 86% | 1012.7 hPa | 0 mm | - | 81 W/m² | - |
| 1778089786 | 25° C | 85% | 1012.7 hPa | 0 mm | - | 169 W/m² | - |
| 1778089485 | 25° C | 84% | 1013.1 hPa | 0 mm | - | 111 W/m² | - |
* Rain latest hour (hover to see other rain measurements)
** Current wind speed in m/s (hover to see current wind gust speed)